VTNAP VAJJ-VAJJ

Flight info

Callsign VTNAP
Flight time N/A
Altitude 2500
Route DCT MAHALAXAMI RACECOURSE DCT MANJRI HELIPAD DCT VAPO
Aircraft EC35/L-ICAO/L

Departure

Time 2026-04-15 14:05
Airport Juhu Aerodrome (VAJJ)

Arrival

Time N/A
Airport Juhu Aerodrome (VAJJ)
Time Latitude Longitude Altitude Speed Heading
2026-04-15 14:05 18.90152 73.10558 2763 ft 131 kts 110°
2026-04-15 14:05 18.89867 73.11472 2810 ft 130 kts 110°
2026-04-15 14:05 18.89591 73.12369 2856 ft 130 kts 111°
2026-04-15 14:05 18.89316 73.13277 2903 ft 129 kts 111°
2026-04-15 14:06 18.89041 73.14185 2945 ft 130 kts 111°
2026-04-15 14:06 18.88764 73.15095 2992 ft 130 kts 110°
2026-04-15 14:06 18.88486 73.16006 3036 ft 130 kts 110°
2026-04-15 14:06 18.88302 73.16610 3064 ft 130 kts 110°
2026-04-15 14:07 18.87931 73.17827 3123 ft 130 kts 110°
2026-04-15 14:07 18.87656 73.18734 3166 ft 130 kts 110°
2026-04-15 14:07 18.87380 73.19644 3205 ft 130 kts 110°
2026-04-15 14:07 18.87105 73.20556 3245 ft 131 kts 110°
2026-04-15 14:08 18.86829 73.21472 3280 ft 131 kts 110°
2026-04-15 14:08 18.86554 73.22389 3315 ft 131 kts 110°
2026-04-15 14:08 18.86279 73.23311 3349 ft 131 kts 110°
2026-04-15 14:08 18.86097 73.23921 3371 ft 131 kts 110°
2026-04-15 14:09 18.85824 73.24840 3404 ft 132 kts 110°
2026-04-15 14:09 18.85459 73.26064 3446 ft 131 kts 109°
2026-04-15 14:09 18.85185 73.26983 3477 ft 131 kts 110°
2026-04-15 14:09 18.85000 73.27606 3498 ft 132 kts 110°
2026-04-15 14:10 18.84730 73.28520 3525 ft 132 kts 109°
2026-04-15 14:10 18.84457 73.29449 3550 ft 132 kts 110°
2026-04-15 14:10 18.84186 73.30373 3578 ft 132 kts 109°
2026-04-15 14:10 18.83911 73.31298 3612 ft 133 kts 115°
2026-04-15 14:11 18.83264 73.31852 3870 ft 116 kts 191°
2026-04-15 14:11 18.82718 73.31448 4132 ft 95 kts 267°
2026-04-15 14:11 18.82973 73.30835 4235 ft 96 kts 301°
2026-04-15 14:11 18.83393 73.30270 4290 ft 99 kts 302°
2026-04-15 14:12 18.83991 73.29905 4298 ft 114 kts
2026-04-15 14:12 18.84584 73.30464 4302 ft 126 kts 69°
2026-04-15 14:12 18.84377 73.31280 4467 ft 118 kts 159°
2026-04-15 14:12 18.83665 73.31239 4700 ft 101 kts 214°
2026-04-15 14:13 18.83029 73.30913 4757 ft 104 kts 202°
2026-04-15 14:13 18.82296 73.30855 4766 ft 109 kts 182°
2026-04-15 14:13 18.81538 73.30924 4780 ft 109 kts 180°
2026-04-15 14:13 18.80778 73.31061 4761 ft 113 kts 167°
2026-04-15 14:14 18.80031 73.31371 4681 ft 120 kts 162°
2026-04-15 14:14 18.79249 73.31734 4584 ft 125 kts 159°
2026-04-15 14:14 18.78460 73.32143 4482 ft 127 kts 157°
2026-04-15 14:14 18.77677 73.32593 4377 ft 129 kts 154°
2026-04-15 14:15 18.76905 73.33085 4265 ft 130 kts 151°
2026-04-15 14:15 18.76150 73.33613 4164 ft 131 kts 149°
2026-04-15 14:15 18.75411 73.34180 4055 ft 131 kts 146°
2026-04-15 14:15 18.74691 73.34780 3944 ft 133 kts 143°
2026-04-15 14:16 18.73993 73.35417 3836 ft 133 kts 140°
2026-04-15 14:16 18.73328 73.36077 3725 ft 133 kts 138°
2026-04-15 14:16 18.72682 73.36780 3613 ft 133 kts 135°
2026-04-15 14:16 18.72064 73.37512 3503 ft 134 kts 133°
2026-04-15 14:17 18.71474 73.38271 3395 ft 133 kts 130°
2026-04-15 14:17 18.70915 73.39055 3286 ft 133 kts 127°
2026-04-15 14:17 18.70388 73.39863 3178 ft 134 kts 124°
2026-04-15 14:17 18.69892 73.40691 3073 ft 134 kts 121°
2026-04-15 14:18 18.69430 73.41547 2970 ft 134 kts 119°
2026-04-15 14:18 18.69007 73.42413 2870 ft 134 kts 116°
2026-04-15 14:18 18.68614 73.43309 2771 ft 134 kts 114°
2026-04-15 14:18 18.68257 73.44222 2672 ft 135 kts 111°
2026-04-15 14:19 18.67936 73.45148 2577 ft 132 kts 109°
2026-04-15 14:19 18.67701 73.45912 3045 ft 85 kts 110°
2026-04-15 14:19 18.67552 73.46440 3333 ft 71 kts 110°
2026-04-15 14:19 18.67418 73.46930 3545 ft 68 kts 110°
2026-04-15 14:20 18.67292 73.47400 3750 ft 66 kts 110°
2026-04-15 14:20 18.67170 73.47857 3950 ft 64 kts 110°
2026-04-15 14:20 18.67054 73.48303 4147 ft 62 kts 110°
2026-04-15 14:20 18.66942 73.48741 4335 ft 61 kts 110°
2026-04-15 14:21 18.66829 73.49183 4472 ft 68 kts 110°
2026-04-15 14:21 18.66689 73.49705 4557 ft 80 kts 110°
2026-04-15 14:21 18.66511 73.50340 4542 ft 99 kts 110°
2026-04-15 14:21 18.66295 73.51085 4505 ft 112 kts 110°
2026-04-15 14:22 18.66054 73.51902 4454 ft 120 kts 110°
2026-04-15 14:22 18.65799 73.52762 4395 ft 125 kts 110°
2026-04-15 14:22 18.65533 73.53652 4328 ft 128 kts 110°
2026-04-15 14:22 18.65263 73.54555 4265 ft 130 kts 110°
2026-04-15 14:23 18.64991 73.55469 4198 ft 131 kts 110°
2026-04-15 14:23 18.64720 73.56388 4124 ft 132 kts 110°
2026-04-15 14:23 18.64447 73.57312 4058 ft 132 kts 110°
2026-04-15 14:23 18.64178 73.58227 3991 ft 132 kts 110°
2026-04-15 14:24 18.63907 73.59149 3935 ft 131 kts 110°
2026-04-15 14:24 18.63639 73.60070 3877 ft 131 kts 110°
2026-04-15 14:24 18.63370 73.60990 3820 ft 131 kts 109°
2026-04-15 14:24 18.63102 73.61910 3764 ft 131 kts 109°
2026-04-15 14:25 18.62834 73.62832 3711 ft 131 kts 109°
2026-04-15 14:25 18.62567 73.63756 3653 ft 132 kts 109°
2026-04-15 14:25 18.62302 73.64681 3600 ft 132 kts 110°
2026-04-15 14:25 18.62039 73.65606 3548 ft 131 kts 110°
2026-04-15 14:26 18.61778 73.66526 3501 ft 131 kts 110°
2026-04-15 14:26 18.61523 73.67428 3456 ft 130 kts 109°
2026-04-15 14:26 18.61262 73.68344 3410 ft 130 kts 109°
2026-04-15 14:26 18.61002 73.69260 3372 ft 130 kts 109°
2026-04-15 14:27 18.60748 73.70160 3386 ft 127 kts 109°
2026-04-15 14:27 18.60505 73.71043 3397 ft 124 kts 109°
2026-04-15 14:27 18.60210 73.72016 2034 ft 156 kts 115°
2026-04-15 14:27 18.59873 73.72782 1974 ft 111 kts 117°
2026-04-15 14:28 18.59765 73.73246 1938 ft 17 kts 84°
2026-04-15 14:28 18.59766 73.73262 1911 ft 0 kts 81°
2026-04-15 14:28 18.59766 73.73261 1911 ft 0 kts 81°